Weather History for Oscoda, MI

Change the Weather History Date:

Thursday, April 18, 2013

  Actual Average Record
Temperature  
Mean Temperature 45 °F -  
Max Temperature 52 °F 51 °F 75 °F (2004)
Min Temperature 38 °F 32 °F 24 °F (2012)
Degree Days  
Heating Degree Days 20    
Moisture  
Dew Point 42 °F    
Average Humidity 97    
Maximum Humidity 99    
Minimum Humidity 93    
Precipitation  
Precipitation 0.51 in - - ()
Sea Level Pressure  
Sea Level Pressure 29.70 in    
Wind  
Wind Speed 7 mph (East)    
Max Wind Speed 14 mph    
Max Gust Speed 17 mph    
Visibility 6 miles    
Events Fog , Rain    
Averages and records for this station are not official NWS values.
T = Trace of Precipitation, MM = Missing Value Source: NWS Daily Summary

Daily Weather History Graph

Daily Weather History Graph

Search for Another Location

Airport:

Trip Planner

Search our weather history database for the weather conditions in past years. The results will help you decide how hot, cold, wet, or windy it might be!

Date:

Astronomy

Apr. 18, 2013 Rise Set
Actual Time 6:44 AM EDT 8:22 PM EDT
Civil Twilight 6:13 AM EDT 8:52 PM EDT
Nautical Twilight 5:36 AM EDT 9:30 PM EDT
Astronomical Twilight 4:56 AM EDT 10:10 PM EDT
Moon 12:52 PM EDT (4/18) 2:39 AM EDT (4/18)
Length of Visible Light 14h 39m
Length of Day
13h 38m
First Quarter, 51% of the Moon is Illuminated
Apr 18
First Quarter
Apr 25
Full
May 2
Last Quarter
May 9
New
May 18
First Quarter

Hourly Weather History & Observations

Time (EDT) Temp. Windchill Dew Point Humidity Pressure Visibility Wind Dir Wind Speed Gust Speed Precip Events Conditions
12:15 AM 39.2 °F 35.0 °F 37.4 °F 93% 30.10 in 10.0 mi East 5.8 mph - N/A   Overcast
12:34 AM 39.0 °F 34.0 °F 37.0 °F 93% 30.09 in 10.0 mi ENE 6.9 mph - N/A   Overcast
12:54 AM 38.8 °F 33.2 °F 37.4 °F 95% 30.07 in 10.0 mi ENE 8.1 mph - N/A   Overcast
1:14 AM 38.8 °F 33.2 °F 37.2 °F 94% 30.06 in 10.0 mi ENE 8.1 mph - N/A   Drizzle
1:34 AM 38.5 °F 32.1 °F 37.4 °F 96% 30.04 in 7.0 mi ENE 9.2 mph - N/A   Light Drizzle
1:54 AM 38.8 °F 32.6 °F 37.6 °F 95% 30.01 in 10.0 mi ENE 9.2 mph - N/A   Overcast
2:14 AM 39.4 °F 33.8 °F 37.8 °F 94% 30.00 in 10.0 mi East 8.1 mph - N/A   Overcast
2:34 AM 39.2 °F 33.0 °F 37.6 °F 94% 30.00 in 10.0 mi East 9.2 mph - N/A   Overcast
2:54 AM 39.2 °F 33.0 °F 37.6 °F 94% 29.98 in 10.0 mi ENE 9.2 mph - N/A   Overcast
3:14 AM 39.2 °F 33.0 °F 37.6 °F 94% 29.98 in 10.0 mi East 9.2 mph - N/A   Overcast
3:34 AM 39.2 °F 32.5 °F 37.4 °F 93% 29.97 in 10.0 mi East 10.4 mph - N/A   Overcast
3:54 AM 39.2 °F 32.5 °F 37.4 °F 93% 29.96 in 10.0 mi East 10.4 mph - N/A   Overcast
4:14 AM 38.7 °F 31.8 °F 37.4 °F 95% 29.94 in 10.0 mi East 10.4 mph - N/A Rain Light Rain
4:34 AM 38.3 °F 32.5 °F 37.4 °F 97% 29.94 in 7.0 mi East 8.1 mph - 0.02 in Rain Rain
4:54 AM 38.5 °F 30.7 °F 37.6 °F 97% 29.90 in 7.0 mi East 12.7 mph - 0.04 in Rain Light Rain
5:14 AM 38.7 °F 31.8 °F 37.6 °F 96% 29.90 in 7.0 mi East 10.4 mph - 0.02 in Rain Rain
5:34 AM 38.5 °F 30.3 °F 37.6 °F 97% 29.88 in 7.0 mi East 13.8 mph - 0.05 in Rain Rain
5:54 AM 38.3 °F 30.5 °F 37.6 °F 97% 29.86 in 5.0 mi East 12.7 mph - 0.11 in Rain Rain
6:14 AM 38.3 °F 30.5 °F 37.6 °F 97% 29.85 in 7.0 mi East 12.7 mph - 0.02 in Rain Light Rain
6:34 AM 38.3 °F 31.9 °F 37.6 °F 97% 29.85 in 4.0 mi East 9.2 mph 16.1 mph 0.07 in Rain Rain
6:55 AM 38.3 °F 30.9 °F 37.6 °F 97% 29.82 in 5.0 mi East 11.5 mph 17.3 mph 0.11 in Rain Rain
7:14 AM 38.3 °F 32.5 °F 37.8 °F 98% 29.81 in 5.0 mi East 8.1 mph - 0.02 in Rain Light Rain
7:34 AM 38.3 °F 31.4 °F 37.8 °F 98% 29.81 in 2.0 mi East 10.4 mph - 0.05 in Rain Heavy Rain
7:54 AM 38.5 °F 31.1 °F 37.9 °F 98% 29.78 in 10.0 mi East 11.5 mph - 0.06 in Rain Light Rain
8:14 AM 38.5 °F 32.7 °F 38.1 °F 99% 29.78 in 7.0 mi East 8.1 mph - N/A Rain Light Rain
8:34 AM 38.5 °F 34.1 °F 38.1 °F 99% 29.73 in 4.0 mi ENE 5.8 mph - 0.01 in Rain Light Rain
8:54 AM 38.7 °F - 38.3 °F 99% 29.75 in 5.0 mi Calm Calm - 0.02 in Rain Rain
9:14 AM 38.7 °F - 38.3 °F 99% 29.73 in 3.0 mi Calm Calm - 0.05 in Rain Rain
9:35 AM 39.4 °F - 39.0 °F 99% 29.70 in 4.0 mi Calm Calm - 0.11 in Rain Rain
9:54 AM 40.3 °F 37.1 °F 40.1 °F 99% 29.68 in 7.0 mi ESE 4.6 mph - 0.11 in Rain Light Rain
10:14 AM 42.1 °F 37.7 °F 41.9 °F 99% 29.67 in 7.0 mi SSE 6.9 mph - N/A   Overcast
10:35 AM 44.2 °F 39.7 °F 43.7 °F 98% 29.67 in 5.0 mi SSE 8.1 mph - N/A   Overcast
10:54 AM 44.8 °F 38.3 °F 43.5 °F 95% 29.63 in 7.0 mi SE 13.8 mph 17.3 mph N/A   Overcast
11:14 AM 44.6 °F 38.4 °F 43.2 °F 95% 29.63 in 5.0 mi SSE 12.7 mph 17.3 mph N/A   Overcast
11:35 AM 44.6 °F 40.7 °F 43.2 °F 95% 29.62 in 5.0 mi SSE 6.9 mph - N/A   Overcast
11:54 AM 44.8 °F 41.6 °F 43.7 °F 96% 29.60 in 5.0 mi SSE 5.8 mph - N/A   Overcast
12:14 PM 45.0 °F 42.6 °F 43.9 °F 96% 29.60 in 5.0 mi SSE 4.6 mph - N/A   Overcast
12:35 PM 45.5 °F - 44.2 °F 95% 29.57 in 5.0 mi Calm Calm - N/A Rain Light Rain
12:54 PM 45.5 °F - 44.4 °F 96% 29.56 in 5.0 mi Calm Calm - N/A   Overcast
1:14 PM 45.1 °F 43.7 °F 44.1 °F 96% 29.55 in 4.0 mi NE 3.5 mph - N/A   Overcast
1:35 PM 46.2 °F 40.8 °F 45.5 °F 97% 29.56 in 3.0 mi NW 11.5 mph - N/A   Overcast
1:54 PM 46.0 °F 41.4 °F 45.5 °F 98% 29.52 in 3.0 mi North 9.2 mph - N/A   Overcast
2:14 PM 46.0 °F 42.5 °F 45.5 °F 98% 29.54 in 3.0 mi NNW 6.9 mph - 0.03 in Rain Heavy Rain
2:34 PM 46.8 °F - 46.2 °F 98% 29.51 in 4.0 mi Calm Calm - 0.06 in Rain Light Rain
2:54 PM 48.9 °F - 48.4 °F 98% 29.48 in 4.0 mi East 5.8 mph - 0.06 in   Mostly Cloudy
3:14 PM 51.1 °F - 49.8 °F 95% 29.50 in 7.0 mi Calm Calm - N/A   Mostly Cloudy
3:34 PM 52.7 °F - 51.3 °F 95% 29.50 in 7.0 mi Calm Calm - N/A   Light Drizzle
3:54 PM 51.1 °F - 49.6 °F 95% 29.53 in 4.0 mi East 3.5 mph - N/A Rain Light Rain
4:14 PM 51.4 °F - 50.5 °F 97% 29.54 in 4.0 mi NNE 3.5 mph - N/A Rain Light Rain
4:34 PM 51.1 °F - 50.2 °F 97% 29.53 in 4.0 mi NNE 3.5 mph - N/A   Overcast
4:54 PM 51.8 °F - 50.9 °F 97% 29.55 in 5.0 mi Calm Calm - N/A   Overcast
5:14 PM 51.4 °F - 50.4 °F 96% 29.55 in 5.0 mi Calm Calm - N/A   Overcast
5:34 PM 49.8 °F - 48.6 °F 95% 29.56 in 5.0 mi SE 5.8 mph - N/A   Overcast
5:54 PM 47.3 °F - 46.0 °F 95% 29.56 in 7.0 mi ESE 5.8 mph - N/A   Overcast
6:14 PM 46.0 °F - 44.8 °F 95% 29.55 in 7.0 mi Calm Calm - N/A   Overcast
6:34 PM 45.1 °F 42.0 °F 43.7 °F 95% 29.54 in 7.0 mi ENE 5.8 mph - N/A   Overcast
6:54 PM 45.5 °F 44.2 °F 44.6 °F 97% 29.55 in 7.0 mi East 3.5 mph - N/A   Overcast
7:14 PM 45.0 °F 42.6 °F 43.7 °F 95% 29.55 in 7.0 mi East 4.6 mph - N/A   Overcast
7:34 PM 43.7 °F 41.1 °F 42.4 °F 95% 29.54 in 5.0 mi ENE 4.6 mph - N/A   Overcast
7:54 PM 42.8 °F 41.1 °F 41.9 °F 97% 29.56 in 5.0 mi ENE 3.5 mph - N/A   Overcast
8:14 PM 43.2 °F 40.5 °F 42.3 °F 97% 29.56 in 5.0 mi East 4.6 mph - N/A   Overcast
8:34 PM 42.8 °F 41.1 °F 41.9 °F 97% 29.57 in 7.0 mi East 3.5 mph - N/A   Overcast
8:54 PM 41.9 °F 40.0 °F 41.0 °F 97% 29.56 in 7.0 mi East 3.5 mph - N/A   Drizzle
9:14 PM 41.9 °F 39.0 °F 41.4 °F 98% 29.53 in 2.5 mi ENE 4.6 mph - N/A   Drizzle
9:34 PM 42.8 °F 40.1 °F 42.4 °F 99% 29.51 in 0.8 mi ENE 4.6 mph - N/A   Overcast
9:54 PM 42.8 °F 40.1 °F 42.3 °F 98% 29.51 in 0.5 mi NE 4.6 mph - N/A Fog Fog
10:15 PM 43.0 °F - 42.8 °F 99% 29.49 in 0.2 mi Calm Calm - N/A Fog Fog
10:34 PM 43.2 °F - 43.0 °F 99% 29.52 in 0.2 mi Calm Calm - N/A Fog Fog
10:54 PM 43.2 °F 40.5 °F 42.8 °F 99% 29.50 in 0.2 mi NNE 4.6 mph - N/A   Unknown
11:15 PM 43.5 °F 40.9 °F 43.3 °F 99% 29.55 in 0.2 mi WNW 4.6 mph - N/A Fog Fog
11:34 PM 43.3 °F 40.7 °F 43.2 °F 99% 29.51 in 0.5 mi NE 4.6 mph - N/A   Overcast
11:54 PM 43.0 °F 39.5 °F 42.8 °F 99% 29.49 in 0.2 mi ENE 5.8 mph - N/A Fog Fog